FENGYUN 1C DEB *, 46990

Orbit data source: Space-Track

FENGYUN 1C DEB *, 46990 is space debris in SSO originally from a launch on Mon, 10 May 1999 UTC launched from the Taiyaun Space Center, China (TSC). Fengyun 1C debris stems from the Chinese weather satellite Fengyun-1C, which was intentionally destroyed by a Chinese anti-satellite missile in 2007. This event dramatically increased the amount of space debris, with thousands of trackable fragments posing hazards to satellites and human spaceflight. The Fengyun 1C debris cloud has become a focal point in discussions about space sustainability and the need for international regulations to prevent the creation of new debris.

Loading next visibility...
Identifier
46990, 1999-025EZQ
Orbit
SSO
Country
Flag of CNCN / PRC
Related business
Manufacturer
Unknown
Mission
Spacecraft
Bus & Motor
Unknown
Mass
Unknown
Launch date (UTC)
1999-05-10 (27 years ago)
Launch vehicle
Unknown
Launch site
Taiyaun Space Center, China (TSC)
Object type
Payload
Rocket body
Debris
Shape & HBR
Unknown shape, 0.1 m
Radar Cross Section
Small (<0.1 m²)

Expand to show TLE details & history
Last TLE update: 4 days ago

TLE from 4 days ago
0 FENGYUN 1C DEB *
1 46990U 99025EZQ 26261.81538021  .00006393  00000-0  13086-2 0  9999
2 46990  98.2165  95.6976 0328656 308.9276  60.6041 14.32279133125299
Epoch: 2026-09-18T19:34Z
TLE epoch observation values (Epoch: 2026-09-18T19:34:08.850Z)
Latitude
12.70535°
Longitude
162.57236°
Altitude
676.771 km
Speed
7.577 km/s
True Right ascension
06h 15m 22s
True Declination
12° 37' 51"
Sunlit
Object was in daylight at epoch
Visualization orbit readout
Latitude
Unknown
Longitude
Unknown
Altitude
Unknown
Speed
Unknown
Apparent Right ascension
Unknown
Apparent Declination
Unknown
Sunlit
N/A
Visualization observer readout
Local Sidereal Time
22:01:47
Azimuth
Unknown
Elevation
Unknown
Doppler factor
Unknown
Orbital elements
Apogee altitude
1,016.534 km
Perigee altitude
545.94 km
Semi-major axis
7,159.374 km
Eccentricity
0.03287
Inclination
98.2165°
RAAN
95.6976°
Arg. of periapsis
308.9276°
True anomaly
63.95089°
Mean anomaly
60.6041°
Eccentric anomaly
62.2709°
Mean motion
3.58287 °/min
Orbital period
100.48 mins
BSTAR
0.0013086
Loading maneuver chart data...
Computing Atmospheric mass density...

Documentation

Showing up to 5 results
|